Temperature
5 5 6 7 8 8 8 9 9 9 9 9 10 10 10 10 10 10 11 11 11 11 11 11 11 11 11 11 11 10 10 10 10 10 10 10 10 10 10 10 10 10 10
4 5 5 6 6 7 7 8 8 8 9 9 9 9 9 10 10 10 10 10 10 10 11 11 11 11 11 10 10 10 10 10 10 10 10 9 9 9 9 9 9 9 9
3 3 4 5 5 6 6 7 7 8 8 8 8 9 9 9 9 9 10 10 10 10 10 10 10 10 10 10 10 10 10 10 10 10 10 9 9 9 9 9 9 9 9
2 2 3 4 4 5 5 6 6 7 7 8 8 8 8 9 9 9 9 9 9 9 10 10 10 10 10 10 10 10 10 10 10 10 10 10 10 9 9 9 9 9 9
1 2 2 3 3 4 5 5 5 6 6 7 7 7 8 8 8 9 9 9 9 9 9 9 10 10 10 10 10 10 10 10 10 10 9 9 9 9 9 9 9 9 9
0 1 2 2 3 3 4 4 5 5 6 6 6 7 7 7 8 8 8 8 8 9 9 9 9 9 10 10 9 9 9 9 9 9 9 9 9 9 9 9 9 8 8
-1 -0 1 1 2 2 3 3 4 4 5 5 6 6 6 7 7 7 8 8 8 8 8 8 9 9 9 9 9 9 9 9 9 9 9 9 9 9 9 9 9 8 8
-2 -1 -1 -0 1 1 2 2 3 3 4 4 5 5 5 6 6 7 7 7 8 8 8 8 8 8 9 9 9 9 9 9 9 9 9 9 9 8 8 9 8 8 8
-3 -2 -1 -1 -0 0 1 1 2 3 3 3 4 4 5 5 6 6 6 7 7 7 8 8 8 8 8 8 8 9 8 8 8 8 8 8 8 8 8 8 8 8 7
-3 -2 -2 -1 -1 -0 0 1 1 2 2 2 3 3 4 4 5 5 6 6 6 7 7 7 7 8 8 8 8 8 8 8 8 8 8 8 8 8 8 8 8 8 8
-4 -3 -3 -2 -2 -1 -1 -0 0 1 1 2 2 3 3 4 4 5 5 5 6 6 6 7 7 7 7 7 8 8 8 8 8 8 8 8 8 8 7 7 7 7 7
-4 -4 -3 -3 -2 -2 -1 -1 -1 0 0 1 1 2 2 3 3 4 4 5 5 5 6 6 6 6 7 7 7 7 7 7 7 7 7 7 7 7 7 7 7 7 7
-5 -4 -4 -3 -3 -3 -2 -2 -1 -1 -0 0 1 1 2 2 2 3 4 4 4 5 5 5 6 6 6 6 7 7 7 7 7 7 7 7 7 7 7 7 7 7 6
-5 -5 -5 -4 -4 -3 -3 -3 -2 -2 -1 -1 -0 0 1 1 2 2 3 3 3 4 4 5 5 5 5 6 6 6 6 6 6 6 6 6 6 6 6 6 6 6 6
-6 -6 -5 -5 -4 -4 -4 -3 -3 -2 -2 -2 -1 -1 -0 0 1 1 2 2 3 3 3 4 4 4 5 5 5 5 6 6 6 6 6 6 6 6 6 6 6 5 5
-7 -6 -6 -6 -5 -5 -4 -4 -4 -3 -3 -2 -2 -1 -1 -0 0 1 1 1 2 2 3 3 3 4 4 4 4 5 5 5 5 5 5 5 5 5 5 5 5 5 5
-7 -7 -6 -6 -6 -5 -5 -5 -4 -4 -4 -3 -3 -2 -2 -1 -1 -0 0 1 1 2 2 2 3 3 3 4 4 4 4 4 5 5 5 5 5 4 5 5 5 5 5
-8 -7 -7 -6 -6 -6 -5 -5 -5 -4 -4 -4 -3 -3 -3 -2 -2 -1 -0 -0 0 1 1 2 2 2 2 3 3 3 3 3 4 4 4 4 4 4 4 4 4 4 4
-8 -7 -7 -7 -6 -6 -6 -5 -5 -5 -5 -5 -4 -4 -3 -3 -2 -2 -1 -1 -0 0 1 1 1 1 2 2 2 2 2 3 3 3 3 3 3 3 3 3 3 4 4
-8 -7 -7 -7 -6 -6 -6 -6 -6 -6 -5 -5 -5 -4 -4 -3 -3 -2 -2 -2 -1 -1 -0 0 0 1 1 1 1 1 2 2 2 2 3 3 3 3 3 3 3 3 3
-8 -8 -8 -7 -7 -7 -7 -6 -6 -6 -6 -6 -5 -5 -4 -4 -3 -3 -3 -2 -2 -1 -1 -1 -0 0 0 1 1 1 1 1 1 2 2 2 2 2 2 2 2 2 2
-8 -8 -8 -8 -7 -7 -7 -7 -7 -7 -6 -6 -6 -5 -5 -4 -4 -4 -3 -3 -3 -2 -2 -1 -1 -1 -0 -0 -0 0 0 0 0 1 1 1 1 1 1 1 1 1 1
-9 -8 -8 -8 -8 -8 -8 -7 -7 -7 -7 -6 -6 -6 -5 -5 -5 -4 -4 -3 -3 -3 -2 -2 -2 -1 -1 -1 -1 -1 -0 -0 -0 0 0 0 0 0 0 1 1 0 0
-9 -9 -9 -9 -8 -8 -8 -8 -8 -7 -7 -7 -6 -6 -6 -5 -5 -5 -4 -4 -4 -3 -3 -3 -3 -2 -2 -2 -1 -1 -1 -1 -1 -1 -1 -0 -0 -0 -0 -0 -0 -0 -0
-9 -9 -9 -9 -9 -9 -8 -8 -8 -8 -7 -7 -7 -7 -7 -6 -6 -5 -5 -5 -4 -4 -4 -3 -3 -3 -3 -2 -2 -2 -2 -2 -1 -1 -1 -1 -1 -1 -1 -1 -1 -1 -1
-9 -9 -9 -9 -9 -9 -9 -8 -8 -8 -8 -8 -8 -8 -7 -7 -7 -6 -6 -5 -5 -5 -4 -4 -4 -4 -3 -3 -3 -3 -3 -3 -2 -2 -2 -2 -2 -2 -2 -2 -1 -1 -1
Wind_Speed
4 4 4 4 5 5 4 4 4 3 2 1 1 2 3 2 2 2 5 7 8 10 10 7 7 7 5 6 6 4 5 3 4 4 3 2 2 1 2 3 4 4 5
5 5 5 5 4 4 4 3 3 3 2 1 1 2 3 2 2 2 3 5 7 8 9 9 7 7 6 6 6 5 4 3 3 4 4 2 1 1 0 1 2 2 3
4 5 5 5 4 4 3 2 2 3 3 3 2 1 1 1 0 1 2 2 5 6 6 8 8 7 7 7 6 6 6 5 3 3 4 4 4 1 1 1 1 2 1
5 5 5 5 5 4 3 2 2 2 3 3 1 0 1 2 2 3 3 2 3 4 5 7 8 8 6 7 7 6 4 6 5 2 1 2 4 4 2 1 1 2 2
6 6 5 4 5 5 4 4 3 3 3 3 1 0 1 1 1 1 2 3 2 3 4 5 7 8 7 7 6 5 5 5 5 4 2 2 2 2 3 3 2 1 2
9 7 6 5 5 6 5 5 4 4 4 3 2 1 1 1 1 2 2 2 2 2 3 4 5 7 6 7 7 7 7 5 5 4 3 4 3 3 3 3 3 3 2
10 10 9 7 6 6 6 5 5 5 5 3 2 2 2 1 3 3 3 3 2 2 4 3 4 5 6 7 7 7 7 6 7 6 4 3 3 3 3 3 3 2 1
11 10 10 8 6 6 6 6 5 5 5 4 3 2 2 1 2 3 3 3 3 3 4 5 4 5 6 6 6 6 6 6 6 6 5 3 3 3 3 4 4 2 1
12 11 9 9 8 6 5 5 5 5 5 5 5 3 3 2 3 3 2 2 2 2 2 4 4 4 6 6 6 5 6 6 6 6 6 4 3 3 3 4 4 5 4
11 11 9 9 9 8 6 5 5 5 5 5 4 4 4 3 3 2 3 2 2 2 2 3 4 4 5 6 6 5 5 6 6 5 6 5 3 3 3 4 3 3 4
10 9 8 8 8 8 7 7 6 6 5 5 4 5 4 3 3 2 3 3 2 2 3 3 3 4 5 5 5 5 6 7 6 5 6 6 5 4 3 3 3 3 3
9 8 8 8 8 8 8 8 7 7 6 5 5 4 4 4 3 3 3 3 3 3 3 3 3 4 5 5 6 6 6 7 7 6 6 6 5 5 4 4 4 3 3
9 8 9 9 9 9 8 9 8 8 7 6 5 5 4 4 4 4 4 3 3 3 2 2 3 3 4 5 6 6 6 6 6 6 7 6 6 6 4 4 4 3 3
8 9 9 9 9 9 9 8 9 8 7 6 5 5 5 4 4 4 4 4 3 3 3 3 3 3 4 4 4 5 5 5 5 5 6 6 7 7 6 5 5 4 4
10 11 10 9 10 10 9 9 9 9 8 7 6 5 5 5 4 4 4 4 3 3 3 2 3 3 3 3 4 4 4 5 5 5 5 5 6 6 6 5 6 5 4
11 11 11 10 11 10 10 9 9 9 8 7 7 6 5 5 4 4 3 3 3 3 3 3 2 3 3 3 5 4 4 4 5 5 5 5 6 6 7 7 8 8 7
10 11 10 10 10 10 9 8 9 9 8 7 7 6 6 5 5 5 4 3 3 3 3 3 3 3 3 3 4 5 4 4 4 5 5 4 4 5 4 5 6 6 7
11 10 10 10 10 9 8 8 8 7 7 7 7 6 6 5 5 4 4 4 4 3 3 3 4 4 4 3 4 4 3 3 4 4 5 5 5 5 5 4 4 3 4
9 9 9 9 9 9 8 7 7 6 6 7 7 7 6 5 5 5 5 4 4 4 3 3 3 4 3 4 4 4 3 3 3 3 4 5 5 7 7 6 5 4 3
8 9 8 8 8 9 7 6 6 6 7 8 8 7 6 5 5 5 5 5 4 4 3 3 3 3 3 4 5 4 3 3 3 3 4 5 6 7 7 7 6 6 4
9 8 8 8 8 9 7 6 6 7 8 8 7 6 5 5 5 5 5 4 3 3 3 3 3 3 3 4 5 4 3 3 3 3 3 3 5 6 6 6 6 7 5
9 9 8 9 8 8 6 7 7 8 7 7 6 6 5 5 4 4 4 4 3 3 3 3 3 2 2 3 4 4 3 3 3 4 3 3 5 5 5 5 5 5 5
9 8 8 9 8 8 6 7 8 8 7 7 7 6 6 5 4 4 4 3 3 3 3 3 3 2 2 2 4 4 3 3 3 3 4 4 5 5 4 5 5 5 4
8 8 8 9 9 9 8 7 8 7 7 7 7 6 5 5 4 4 4 3 3 3 3 3 3 2 2 2 2 2 2 2 2 2 3 4 4 4 4 3 3 3 4
8 7 7 8 9 9 8 8 8 7 7 7 6 6 6 5 4 4 3 4 4 4 4 3 3 3 3 3 4 3 2 2 3 2 2 2 3 3 3 2 2 3 3
7 8 8 8 9 8 8 8 7 7 6 6 6 5 5 4 4 4 4 6 5 6 5 4 4 3 4 5 5 4 4 4 3 2 3 3 3 4 4 4 3 3 3
Wind_Direction
357 14 18 14 26 29 33 40 32 21 38 55 172 180 184 187 166 159 171 169 167 166 163 161 159 158 164 164 152 137 134 132 130 109 90 44 53 105 140 149 149 157 159
7 9 15 15 21 26 21 25 24 15 10 331 249 224 192 191 187 166 159 164 168 168 169 164 166 163 161 159 157 144 140 146 154 138 131 125 27 339 269 171 169 173 159
3 357 2 2 11 14 6 360 359 357 356 360 13 28 89 114 174 182 184 177 170 168 166 167 165 166 166 172 172 161 152 162 183 169 152 158 193 204 295 237 199 186 177
358 357 358 1 3 354 350 350 353 357 360 8 20 104 197 198 221 214 205 194 171 169 168 171 168 170 172 174 178 171 164 159 172 182 173 156 150 152 173 261 242 213 201
0 359 356 352 357 0 1 356 351 354 360 1 0 346 304 249 222 203 197 192 189 176 170 173 175 175 177 178 177 170 171 168 171 173 161 137 120 128 151 192 221 249 244
355 353 353 358 5 8 10 7 1 356 353 354 353 349 323 325 232 198 203 203 204 203 188 181 180 179 180 182 184 181 180 181 175 178 171 162 164 172 160 173 194 216 253
2 360 1 4 6 8 6 1 360 356 348 341 335 319 294 265 242 221 211 209 208 221 211 196 195 187 185 184 183 183 187 185 183 185 187 177 176 161 155 152 166 193 249
1 1 1 359 357 2 2 359 353 349 344 335 322 308 301 270 268 260 234 221 222 226 217 203 203 197 187 186 183 185 188 187 189 192 186 180 181 168 163 159 155 162 236
355 355 359 0 357 355 354 348 344 346 343 338 336 320 313 301 290 290 262 236 238 240 225 210 207 204 192 188 184 190 191 188 192 193 191 190 188 182 176 163 162 164 192
352 354 355 354 355 352 347 345 345 340 337 336 337 330 322 316 306 295 286 262 250 238 225 223 212 211 200 193 191 191 190 191 196 192 190 195 189 184 182 176 174 168 175
347 349 349 349 352 352 349 347 348 349 345 342 337 333 329 327 328 306 293 281 263 240 229 233 227 222 211 198 197 197 190 195 198 195 194 198 186 184 185 177 171 173 167
347 348 350 352 354 353 351 350 348 346 339 336 334 329 329 331 328 318 309 304 277 261 245 236 233 236 224 204 199 199 196 198 200 201 197 201 190 190 187 181 182 186 181
348 351 354 353 349 348 349 349 346 342 336 333 330 328 328 326 316 309 304 298 283 270 263 243 230 240 232 214 207 201 200 201 200 198 198 202 194 197 194 190 192 195 193
347 350 350 348 345 343 344 344 341 341 338 332 326 320 316 311 305 301 301 295 284 265 254 246 243 247 237 217 208 201 198 199 198 199 200 199 199 200 194 196 199 192 190
347 346 343 341 341 341 339 340 339 340 338 334 326 317 310 307 305 301 299 297 290 277 266 255 265 263 238 219 204 203 198 195 196 200 202 203 203 199 195 199 197 189 192
338 337 336 337 336 334 333 335 335 335 334 333 327 321 320 319 312 305 300 298 299 291 274 257 258 264 252 234 213 205 202 201 201 204 206 205 205 207 204 201 195 191 190
330 330 330 328 326 324 326 328 327 329 332 328 326 329 329 325 320 316 313 301 297 289 268 260 252 258 254 244 222 210 204 206 206 202 203 210 209 203 196 199 199 203 201
326 325 324 323 323 322 324 325 326 329 329 328 327 324 322 315 310 309 306 296 290 277 263 260 256 258 254 247 231 210 201 207 209 207 202 203 207 202 189 189 194 204 208
314 314 315 315 318 319 322 325 325 328 329 326 322 318 314 308 305 299 294 291 287 284 272 260 256 248 252 246 233 206 197 204 210 209 202 200 206 202 188 185 191 202 216
317 318 320 322 323 322 322 324 324 326 322 318 316 313 310 304 295 288 289 289 284 281 279 279 259 247 249 249 241 212 197 203 212 215 211 207 206 201 192 191 191 202 208
317 322 325 326 322 321 324 323 322 317 314 317 319 317 312 303 293 288 286 282 278 276 272 275 268 256 259 255 246 224 206 204 206 211 211 211 203 202 201 200 202 206 192
324 327 327 324 326 330 331 328 322 318 321 324 324 320 316 308 303 298 294 286 266 261 261 266 272 269 266 265 250 237 226 215 208 213 210 205 201 208 210 207 199 183 168
321 325 324 324 330 334 333 326 321 326 329 331 328 322 316 311 307 299 291 287 267 245 251 251 252 266 276 266 261 248 228 231 230 221 207 203 201 204 205 199 185 172 167
319 323 327 327 328 330 331 325 325 330 333 331 328 328 325 319 317 308 296 286 269 250 244 243 245 254 265 260 240 234 231 232 229 210 196 196 198 195 189 188 185 180 181
318 321 321 320 321 326 328 328 332 334 333 331 330 331 328 322 320 315 307 297 284 265 251 238 239 238 253 264 261 246 234 221 215 194 180 184 186 189 188 184 185 179 175
315 319 319 319 320 324 325 327 329 333 333 333 333 331 331 329 328 329 333 334 323 321 306 288 278 276 268 275 274 269 257 238 209 193 191 199 200 200 199 197 197 191 188
Height
1500 1500 1500 1500 1501 1502 1502 1504 1505 1507 1509 1510 1512 1513 1516 1519 1522 1524 1526 1528 1530 1532 1534 1536 1539 1541 1543 1546 1548 1550 1552 1554 1556 1558 1560 1561 1563 1564 1565 1566 1567 1568 1568
1498 1498 1498 1498 1498 1499 1500 1501 1503 1504 1506 1507 1509 1511 1513 1516 1518 1521 1523 1525 1527 1529 1531 1533 1535 1538 1540 1543 1545 1547 1549 1551 1553 1555 1557 1559 1562 1562 1563 1564 1565 1566 1566
1498 1497 1497 1497 1497 1497 1498 1499 1500 1502 1503 1505 1507 1509 1510 1513 1515 1517 1519 1521 1523 1526 1528 1530 1532 1535 1537 1539 1542 1544 1546 1548 1550 1553 1554 1556 1557 1558 1560 1561 1562 1563 1564
1498 1497 1497 1496 1496 1496 1497 1498 1499 1500 1501 1502 1504 1505 1506 1508 1510 1513 1515 1517 1520 1522 1524 1526 1529 1531 1533 1536 1538 1541 1543 1545 1547 1549 1551 1553 1554 1555 1556 1559 1559 1560 1561
1499 1497 1496 1496 1495 1495 1495 1496 1497 1498 1499 1500 1501 1502 1504 1505 1508 1510 1512 1514 1516 1519 1521 1523 1525 1528 1530 1532 1535 1537 1539 1541 1544 1545 1547 1549 1551 1552 1553 1554 1556 1557 1558
1499 1497 1495 1494 1494 1493 1493 1494 1494 1495 1496 1498 1499 1500 1501 1502 1504 1506 1508 1510 1512 1515 1517 1520 1522 1524 1526 1529 1531 1533 1536 1538 1540 1542 1544 1546 1547 1548 1550 1551 1552 1554 1555
1499 1496 1494 1493 1492 1491 1492 1492 1492 1493 1494 1495 1496 1497 1498 1499 1501 1503 1505 1507 1509 1511 1513 1515 1518 1520 1522 1525 1527 1530 1532 1534 1536 1538 1541 1543 1544 1546 1547 1549 1550 1551 1552
1498 1496 1494 1492 1491 1491 1491 1491 1490 1491 1491 1492 1493 1495 1496 1497 1498 1500 1501 1503 1505 1507 1509 1512 1514 1516 1518 1521 1523 1525 1528 1530 1532 1534 1537 1539 1541 1542 1544 1546 1547 1547 1548
1499 1496 1494 1492 1491 1490 1490 1490 1489 1489 1489 1490 1490 1491 1493 1493 1495 1496 1498 1500 1501 1504 1506 1508 1510 1512 1514 1516 1519 1521 1523 1525 1528 1530 1532 1534 1536 1538 1540 1542 1543 1545 1544
1499 1496 1494 1492 1490 1489 1489 1488 1488 1487 1487 1487 1488 1488 1489 1490 1492 1493 1494 1496 1498 1500 1502 1504 1506 1507 1510 1512 1514 1516 1519 1521 1523 1526 1528 1530 1532 1534 1536 1537 1539 1540 1541
1500 1497 1495 1492 1490 1489 1487 1486 1485 1485 1485 1485 1485 1486 1486 1487 1488 1489 1491 1492 1494 1495 1497 1499 1501 1503 1505 1506 1509 1511 1514 1516 1519 1521 1523 1525 1527 1529 1531 1533 1534 1535 1537
1501 1498 1495 1492 1490 1488 1486 1484 1483 1483 1483 1482 1482 1483 1483 1484 1484 1485 1486 1488 1489 1491 1493 1494 1496 1498 1500 1502 1504 1506 1509 1511 1514 1516 1518 1520 1523 1525 1526 1528 1529 1531 1532
1501 1497 1494 1491 1489 1486 1484 1483 1482 1481 1480 1480 1480 1479 1480 1480 1480 1481 1482 1484 1485 1486 1488 1490 1491 1493 1495 1497 1499 1501 1503 1506 1508 1511 1513 1515 1517 1519 1521 1523 1524 1526 1528
1501 1497 1493 1490 1488 1485 1483 1481 1480 1479 1478 1477 1476 1476 1476 1476 1477 1477 1478 1479 1481 1482 1484 1485 1487 1489 1491 1492 1494 1496 1498 1500 1503 1505 1508 1510 1512 1514 1516 1518 1520 1521 1523
1500 1497 1493 1490 1487 1484 1482 1480 1478 1476 1475 1474 1473 1473 1473 1473 1473 1474 1474 1475 1476 1478 1479 1481 1482 1484 1486 1487 1489 1491 1493 1495 1498 1500 1502 1505 1507 1509 1511 1513 1515 1516 1517
1500 1496 1493 1489 1486 1483 1480 1478 1476 1474 1473 1471 1470 1469 1469 1469 1469 1470 1470 1471 1472 1473 1475 1476 1478 1479 1481 1482 1484 1487 1489 1491 1493 1495 1497 1499 1501 1504 1506 1508 1510 1511 1512
1500 1496 1492 1489 1485 1482 1479 1477 1474 1472 1470 1469 1467 1466 1465 1465 1466 1466 1466 1467 1468 1469 1470 1472 1473 1474 1475 1477 1480 1482 1484 1486 1488 1490 1492 1494 1496 1498 1501 1503 1505 1506 1508
1498 1494 1491 1488 1484 1481 1478 1475 1472 1470 1468 1466 1464 1463 1462 1462 1462 1462 1462 1463 1464 1465 1466 1467 1469 1470 1471 1473 1475 1477 1479 1481 1482 1484 1486 1488 1490 1493 1495 1497 1499 1501 1502
1498 1494 1490 1487 1483 1480 1476 1473 1470 1467 1465 1463 1461 1460 1459 1458 1458 1458 1459 1459 1460 1460 1462 1463 1464 1465 1466 1468 1470 1472 1473 1475 1477 1479 1481 1483 1485 1487 1490 1492 1494 1495 1497
1496 1492 1488 1484 1481 1478 1474 1471 1468 1465 1462 1460 1457 1456 1455 1455 1455 1455 1455 1456 1456 1456 1457 1458 1459 1460 1461 1463 1465 1467 1469 1470 1472 1474 1476 1478 1480 1482 1484 1486 1488 1490 1492
1493 1489 1486 1482 1478 1475 1472 1469 1466 1463 1460 1457 1455 1453 1452 1452 1451 1451 1452 1452 1452 1452 1453 1454 1455 1456 1457 1458 1460 1462 1464 1465 1467 1469 1471 1473 1475 1477 1479 1481 1483 1485 1487
1490 1487 1483 1479 1476 1473 1470 1466 1464 1461 1458 1455 1453 1451 1450 1449 1448 1448 1448 1448 1448 1448 1449 1450 1450 1451 1453 1454 1456 1458 1459 1461 1463 1464 1466 1468 1470 1472 1475 1476 1478 1480 1482
1488 1485 1481 1477 1474 1471 1468 1465 1462 1459 1456 1453 1450 1449 1447 1446 1445 1445 1444 1444 1444 1445 1445 1446 1446 1447 1448 1450 1452 1453 1455 1457 1458 1460 1461 1464 1466 1468 1470 1472 1473 1475 1477
1486 1483 1479 1475 1471 1469 1466 1463 1460 1457 1454 1451 1448 1446 1445 1443 1442 1442 1441 1441 1440 1441 1441 1442 1442 1443 1444 1446 1448 1449 1450 1452 1454 1455 1457 1459 1461 1463 1465 1467 1468 1470 1472
1484 1481 1477 1473 1470 1467 1464 1461 1458 1455 1452 1449 1446 1444 1442 1440 1439 1438 1438 1437 1437 1437 1438 1438 1439 1439 1440 1442 1444 1445 1446 1448 1450 1451 1453 1454 1456 1458 1460 1462 1464 1465 1467
1481 1478 1475 1471 1468 1465 1462 1459 1457 1454 1451 1447 1445 1443 1440 1439 1437 1435 1435 1434 1434 1434 1435 1435 1436 1436 1438 1439 1440 1442 1443 1444 1446 1447 1448 1450 1452 1453 1455 1457 1459 1461 1462